Weather in Katunki

Russia / Nizhny Novgorod Oblast'     56°49′48″N   43°13′08″E
temp.,
°C
wind,
m/s
gust,
m/s
humid.,
%
clouds,
%
prec.,
mm/h
press.,
hPa
HPBL,
m
17 august, wed
wed1700:00+18e36755 0.0 102478
03:00+17ese35815 0.0 102491
06:00+17e358197 0.0 1024105
09:00+20ese457265 0.0 1024177
12:00+22ese466366 0.0 1023530
15:00+24ese455642 0.0 1022671
18:00+23ese336164 0.0 102161
21:00+20e467420 0.0 102162
18 august, thu
thu1800:00+18e36815 0.0 102276
03:00+17e36844 0.0 102297
06:00+17e48821 0.0 1023154
09:00+20e57670 0.0 1023207
12:00+22e57565 0.0 1023490
15:00+23ese57515 0.0 1022593
18:00+23e355852 0.0 102394
21:00+19e487236 0.0 1024129
19 august, fri
fri1900:00+19e5107739 0.0 1025193
03:00+17e5117929 0.0 1026280
06:00+16e61272100 0.0 1028365
09:00+18ese6105696 0.0 1029417
12:00+21ese710437 0.0 1029515
15:00+22ese710441 0.0 1029576
18:00+20ese59520 0.0 1029244
21:00+17e512600 0.0 1030202
20 august, sat
sat2000:00+16ese613600 0.0 1030290
03:00+15ese611620 0.0 1031242
06:00+14ese59640 0.0 1032194
09:00+18ese57540 0.0 1032290
12:00+21ese57483 0.0 1031470
15:00+22ese5744100 0.0 1030531
18:00+21se3353100 0.0 102945
21:00+18ese456387 0.0 103050
21 august, sun
sun2100:00+16ese476489 0.0 1030117
03:00+15ese466682 0.0 1030128
06:00+15ese466585 0.0 1030141
09:00+18ese455818 0.0 1030232
12:00+21se465069 0.0 1029441
15:00+23ese464781 0.0 1027597
18:00+22se3355100 0.0 102620
21:00+19e336762 0.0 102722